{"data":{"norad_id":59244,"epoch":"2026-05-25T03:41:51.266976Z","epoch_age_seconds":64783,"freshness":"FRESH","line1":"1 59244U 24049P   26145.15406559 -.00002459  00000+0 -79826-4 0  9993","line2":"2 59244  43.0013  71.4192 0001136 248.6088 111.4643 15.27593864124094","mean_motion":15.27593864,"eccentricity":0.0001136,"inclination_deg":43.0013,"raan_deg":71.4192,"arg_perigee_deg":248.6088,"mean_anomaly_deg":111.4643,"bstar":-7.9826e-5,"rev_number":12409,"period_min":94.26589317591,"perigee_km":482.2281565255,"apogee_km":483.78700857466,"semimajor_km":6861.1445825501,"source":"CELESTRAK","updated_at":"2026-05-25T13:38:18.872037Z"}}